DW3478 Weather Reports


time (UTC)temp
C
wind
direction
speed
KPH
gust
KPH
rain 1hr
cm
rain 24hr
cm
rain mn
cm
humidity
%
barometer
mb
20260903224304 21 186 0.0 3.2 0.00 0.00 0.00 83 1022.0
20260903223805 21 186 0.0 1.6 0.00 0.00 0.00 83 1022.0
20260903221804 21 171 0.0 4.8 0.00 0.00 0.00 83 1022.0
20260903221305 21 182 1.6 3.2 0.00 0.00 0.00 83 1022.0
20260903220804 21 162 0.0 4.8 0.00 0.00 0.00 83 1022.0
20260903214304 21 187 1.6 4.8 0.00 0.00 0.00 83 1022.0
20260903213304 21 198 0.0 4.8 0.00 0.00 0.00 83 1021.0
20260903212804 22 186 1.6 4.8 0.00 0.00 0.00 83 1021.0
20260903212306 22 191 3.2 4.8 0.00 0.00 0.00 83 1021.0
20260903211805 22 198 3.2 4.8 0.00 0.00 0.00 83 1021.0
20260903210304 22 150 4.8 4.8 0.00 0.00 0.00 82 1021.0
20260903201804 22 137 3.2 8.0 0.00 0.00 0.00 82 1021.0
20260903201305 22 134 4.8 9.7 0.00 0.00 0.00 82 1021.0
20260903200804 22 139 4.8 11.3 0.00 0.00 0.00 82 1020.0
20260903200305 22 124 6.4 9.7 0.00 0.00 0.00 82 1020.0
20260903195306 22 156 4.8 9.7 0.00 0.00 0.00 82 1020.0
20260903194805 22 138 6.4 9.7 0.00 0.00 0.00 82 1020.0
20260903193804 22 112 6.4 14.5 0.00 0.00 0.00 82 1020.0
20260903193305 22 126 8.0 14.5 0.00 0.00 0.00 81 1020.0
20260903191805 22 96 9.7 14.5 0.00 0.00 0.00 81 1020.0
20260903191304 22 114 8.0 16.1 0.00 0.00 0.00 81 1020.0
20260903190805 22 87 6.4 19.3 0.00 0.00 0.00 80 1020.0
20260903182306 23 136 11.3 22.5 0.00 0.00 0.00 75 1020.0
20260903181805 23 126 12.9 22.5 0.00 0.00 0.00 74 1020.0
20260903173304 25 121 12.9 22.5 0.00 0.00 0.00 68 1020.0
20260903172805 25 139 14.5 24.1 0.00 0.00 0.00 67 1020.0
20260903172306 25 137 14.5 22.5 0.00 0.00 0.00 63 1020.0
20260903171804 26 100 14.5 22.5 0.00 0.00 0.00 61 1020.0
20260903171305 26 108 14.5 25.7 0.00 0.00 0.00 61 1020.0
20260903170804 26 117 9.7 19.3 0.00 0.00 0.00 59 1020.0
20260903170304 26 134 11.3 20.9 0.00 0.00 0.00 60 1020.0
20260903165804 26 121 12.9 27.4 0.00 0.00 0.00 59 1020.0
20260903165306 26 131 12.9 22.5 0.00 0.00 0.00 58 1020.0
20260903164304 26 141 12.9 22.5 0.00 0.00 0.00 59 1020.0
20260903162804 27 131 16.1 22.5 0.00 0.00 0.00 58 1020.0
20260903155805 27 154 11.3 19.3 0.00 0.00 0.00 57 1020.0
20260903155306 27 135 6.4 16.1 0.00 0.00 0.00 57 1020.0
20260903154304 27 154 8.0 16.1 0.00 0.00 0.00 57 1020.0
20260903153805 28 132 8.0 12.9 0.00 0.00 0.00 56 1020.0
20260903153304 28 145 9.7 16.1 0.00 0.00 0.00 56 1020.0
20260903152804 28 129 8.0 19.3 0.00 0.00 0.00 57 1020.0
20260903152306 28 144 6.4 11.3 0.00 0.00 0.00 56 1020.0
20260903151306 27 165 8.0 11.3 0.00 0.00 0.00 59 1020.0
20260903150806 27 200 4.8 14.5 0.00 0.00 0.00 58 1020.0
20260903145306 30 267 1.6 8.0 0.00 0.00 0.00 56 1020.0
20260903134806 28 300 1.6 4.8 0.00 0.00 0.00 57 1020.0
20260903134305 27 297 3.2 8.0 0.00 0.00 0.00 57 1020.0
20260903133806 28 294 1.6 11.3 0.00 0.00 0.00 58 1020.0
20260903132805 27 299 3.2 16.1 0.00 0.00 0.00 58 1020.0
20260903132306 27 290 3.2 16.1 0.00 0.00 0.00 58 1020.0
20260903123305 26 300 3.2 14.5 0.00 0.00 0.00 63 1021.0
20260903122806 27 317 3.2 8.0 0.00 0.00 0.00 62 1021.0
20260903121305 27 314 3.2 4.8 0.00 0.00 0.00 63 1021.0
20260903120806 26 308 3.2 4.8 0.00 0.00 0.00 63 1021.0
20260903120306 26 312 3.2 9.7 0.00 0.00 0.00 65 1021.0
20260903115805 26 291 3.2 14.5 0.00 0.00 0.00 66 1021.0
20260903115306 26 296 3.2 4.8 0.00 0.00 0.00 66 1021.0
20260903114806 26 280 3.2 11.3 0.00 0.00 0.00 69 1021.0
20260903114305 26 275 8.0 19.3 0.00 0.00 0.00 66 1021.0
20260903112805 25 305 4.8 16.1 0.00 0.00 0.00 68 1021.0
20260903112306 26 301 1.6 4.8 0.00 0.00 0.00 68 1021.0
20260903111805 25 292 1.6 4.8 0.00 0.00 0.00 70 1021.0
20260903104806 25 286 4.8 11.3 0.00 0.00 0.00 70 1021.0
20260903100306 22 310 0.0 1.6 0.00 0.00 0.00 81 1021.0
20260903095806 22 276 0.0 4.8 0.00 0.00 0.00 82 1021.0
20260903095306 22 300 0.0 3.2 0.00 0.00 0.00 82 1021.0
20260903094806 22 271 0.0 3.2 0.00 0.00 0.00 84 1021.0
20260903094306 22 286 0.0 4.8 0.00 0.00 0.00 85 1021.0
20260903092805 22 279 1.6 8.0 0.00 0.00 0.00 85 1021.0
20260903091805 21 266 0.0 4.8 0.00 0.00 0.00 86 1021.0
20260903091305 21 330 1.6 4.8 0.00 0.00 0.00 86 1021.0
20260903090805 21 289 0.0 11.3 0.00 0.00 0.00 86 1021.0
20260903085306 21 0 1.6 4.8 0.00 0.00 0.00 87 1021.0
20260903084805 21 287 1.6 11.3 0.00 0.00 0.00 87 1021.0
20260903083805 21 254 1.6 4.8 0.00 0.00 0.00 88 1021.0
20260903083305 21 258 0.0 4.8 0.00 0.00 0.00 88 1021.0
20260903082806 21 248 0.0 4.8 0.00 0.00 0.00 88 1021.0
20260903081305 21 245 0.0 3.2 0.00 0.00 0.00 88 1021.0
20260903080305 21 245 1.6 4.8 0.00 0.00 0.00 88 1021.0
20260903075805 21 254 1.6 3.2 0.00 0.00 0.00 89 1021.0
20260903073805 20 128 1.6 3.2 0.00 0.00 0.00 88 1020.0
20260903072805 20 9 0.0 1.6 0.00 0.00 0.00 89 1020.0
20260903071305 20 15 0.0 1.6 0.00 0.00 0.00 89 1020.0
20260903070804 20 15 0.0 1.6 0.00 0.00 0.00 89 1020.0
20260903070306 20 15 1.6 3.2 0.00 0.00 0.00 89 1020.0
20260903065805 20 15 1.6 3.2 0.00 0.00 0.00 89 1020.0
20260903062306 20 5 1.6 3.2 0.00 0.00 0.00 89 1019.0
20260903061805 20 338 1.6 3.2 0.00 0.00 0.00 89 1019.0
20260903055805 20 331 0.0 4.8 0.00 0.00 0.00 89 1019.0
20260903055306 20 342 0.0 4.8 0.00 0.00 0.00 88 1019.0
20260903054805 20 342 1.6 3.2 0.00 0.00 0.00 88 1019.0
20260903054306 20 355 1.6 4.8 0.00 0.00 0.00 88 1019.0
20260903051305 20 6 1.6 3.2 0.00 0.03 0.00 88 1019.0
20260903050305 20 21 3.2 4.8 0.00 0.03 0.00 88 1019.0
20260903044805 20 10 1.6 3.2 0.00 0.03 0.00 87 1019.0
20260903044305 20 4 1.6 3.2 0.00 0.03 0.00 87 1019.0
20260903043305 20 321 1.6 3.2 0.00 0.03 0.00 87 1019.0
20260903042805 20 349 1.6 3.2 0.00 0.03 0.00 87 1019.0
20260903042306 20 356 3.2 4.8 0.00 0.03 0.00 87 1019.0
20260903041805 20 17 1.6 4.8 0.00 0.03 0.00 87 1019.0
20260903040304 20 7 1.6 4.8 0.00 0.03 0.00 88 1019.0
20260903035804 20 357 1.6 3.2 0.00 0.03 0.00 88 1019.0
20260903035306 20 14 1.6 4.8 0.00 0.03 0.00 88 1019.0
20260903034805 20 353 1.6 4.8 0.00 0.03 0.00 88 1019.0
20260903033804 20 25 3.2 4.8 0.00 0.03 0.00 88 1019.0
20260903033305 20 33 0.0 0.0 0.00 0.03 0.00 88 1019.0
20260903025306 20 83 0.0 3.2 0.00 0.03 0.00 89 1019.0
20260903024805 20 84 1.6 4.8 0.00 0.03 0.00 89 1019.0
20260903024304 20 60 1.6 3.2 0.00 0.03 0.00 89 1019.0
20260903023805 20 84 3.2 4.8 0.00 0.03 0.00 89 1019.0
20260903023304 20 95 1.6 4.8 0.00 0.03 0.00 89 1019.0
20260903021805 20 30 0.0 3.2 0.00 0.03 0.00 89 1019.0
20260903021305 20 18 1.6 4.8 0.00 0.03 0.00 88 1019.0
20260903020305 20 23 1.6 3.2 0.00 0.03 0.00 88 1020.0
20260903013805 20 37 1.6 4.8 0.00 0.03 0.00 89 1020.0
20260903012306 20 37 1.6 4.8 0.00 0.03 0.00 89 1020.0
20260903011805 20 17 1.6 4.8 0.00 0.03 0.00 88 1020.0
20260903010805 20 33 1.6 3.2 0.00 0.03 0.00 88 1020.0
20260903004805 20 19 1.6 4.8 0.00 0.03 0.00 88 1020.0
20260903004305 20 16 1.6 4.8 0.00 0.03 0.00 88 1020.0
20260903003304 20 20 3.2 4.8 0.00 0.03 0.00 88 1020.0
20260903002805 20 21 3.2 4.8 0.00 0.03 0.00 88 1020.0
20260903001805 21 17 0.0 0.0 0.00 0.03 0.00 88 1020.0
20260903001304 21 14 0.0 0.0 0.00 0.03 0.00 88 1020.0
20260903000805 21 14 0.0 0.0 0.00 0.03 0.00 88 1020.0
20260902235805 21 14 0.0 0.0 0.00 0.03 0.00 88 1020.0
20260902234805 21 14 1.6 3.2 0.00 0.03 0.00 88 1020.0
20260902233305 21 38 0.0 0.0 0.00 0.03 0.00 88 1020.0
20260902232306 21 38 0.0 0.0 0.00 0.03 0.00 88 1020.0
20260902231805 21 38 0.0 1.6 0.00 0.03 0.00 88 1020.0
20260902231304 21 38 0.0 1.6 0.00 0.03 0.00 88 1020.0
20260902230804 21 52 0.0 1.6 0.00 0.03 0.00 88 1021.0
20260902230305 21 130 0.0 0.0 0.00 0.03 0.00 88 1021.0
20260902225805 21 130 0.0 4.8 0.00 0.03 0.03 88 1021.0